Temp_Advection
nan nan nan nan nan nan nan nan nan nan nan nan nan nan nan nan nan nan nan nan nan nan nan nan nan nan nan nan nan nan nan nan nan nan nan nan nan nan nan nan nan nan nan nan nan
nan 0 0 0 -0 -0 -0 -0 0 -0 -0 0 0 0 0 0 1 0 -0 0 0 -0 -0 -0 -0 -0 0 -0 -0 -0 0 -0 -0 -0 -0 0 0 -0 -0 -0 -0 1 0 0 nan
nan -0 -0 -0 -0 -0 -0 -0 -0 0 0 -0 -0 0 0 0 0 0 -0 -0 -0 -0 -0 -0 -0 0 0 0 -0 -0 -0 -0 0 -0 -0 0 0 0 -0 -0 -1 -1 -0 -0 nan
nan -0 -0 0 0 -0 -0 -0 -0 0 -0 -0 -0 0 0 0 -0 0 -0 -0 -0 -0 0 -0 -0 -0 0 0 -0 -0 0 0 -0 0 0 0 0 -0 0 -0 -0 -0 -0 -1 nan
nan 0 -0 -0 -0 -0 0 -0 0 0 0 0 0 0 -0 0 -0 0 0 -0 -0 -0 -0 -0 -0 -0 -0 0 -0 -0 -0 0 0 0 0 -0 -0 0 0 0 0 0 0 -0 nan
nan 0 -0 -0 0 0 -0 0 0 1 0 0 0 0 0 0 -0 -0 0 -0 -0 -0 -1 -0 -0 0 -0 -0 -0 -0 0 -0 -0 -0 -0 -0 0 0 -0 0 0 0 0 0 nan
nan -0 -0 0 0 0 0 0 0 0 0 0 0 0 1 0 -0 -0 0 -0 -0 -0 -0 -1 -0 -0 -1 -0 0 -0 -0 -0 -0 -0 -0 0 -0 -0 -0 0 0 0 0 0 nan
nan -0 0 0 0 0 0 0 0 0 0 0 0 0 0 0 -0 -0 -0 -0 -0 -0 -0 -1 -0 0 -0 -0 -0 -0 -0 0 -0 -0 -0 -0 -0 -0 0 0 0 -0 0 0 nan
nan 0 0 0 0 0 0 0 0 0 0 0 0 0 0 0 0 -0 -0 0 -0 -0 -0 -1 -0 0 -0 -1 -0 -0 0 0 0 -0 -0 0 -0 -0 0 0 -0 -0 -0 -0 nan
nan 0 0 0 0 0 0 0 1 0 -0 -0 0 0 0 0 0 0 0 0 0 0 1 0 -1 -1 -0 0 -0 -0 0 0 0 -0 -0 0 0 -0 -0 0 -0 -0 -0 -0 nan
nan -0 0 0 0 0 0 -0 -0 -1 -1 0 0 0 0 0 0 0 0 0 0 -1 -1 -1 -1 0 0 0 -0 0 -0 0 -0 -0 -0 0 0 -1 -1 0 -1 -1 -0 -0 nan
nan 0 -0 0 0 0 -0 -1 -0 -0 -0 1 0 0 0 1 1 0 0 -0 -1 -1 -0 -0 0 0 -0 -0 0 0 0 0 -0 0 -0 -0 0 -0 -0 -1 -1 -1 -1 -0 nan
nan -0 -0 -0 0 -0 -1 -0 0 0 -0 -1 -0 0 0 -0 -0 0 0 -1 -1 -0 -0 0 0 -0 -0 -0 -0 -0 0 0 0 -0 -0 -0 -1 -0 -0 -0 -1 -0 -0 -0 nan
nan -0 -0 0 -0 -0 -0 0 0 -0 -0 -1 -0 0 0 -0 0 0 -0 -0 -0 -0 -0 0 -0 -0 -0 0 -0 0 0 0 -0 -0 0 -0 -0 -0 -0 -0 -0 -0 -0 0 nan
nan 0 0 0 0 0 0 0 0 -0 -0 -1 -0 -0 -0 -0 0 0 -0 -1 -0 0 -0 0 0 -0 0 0 -0 0 0 -0 -0 -0 -0 0 -0 -1 -0 0 0 -0 0 0 nan
nan -0 -0 -0 0 0 0 0 -0 -1 0 -0 -0 -0 -0 -0 -0 -0 -0 -1 -1 -1 -0 0 -0 -0 0 0 0 0 -0 -1 -0 -0 0 -0 -0 -0 -0 0 0 -0 -0 0 nan
nan -0 -0 -0 -0 -0 -0 -0 -1 0 -0 0 -0 0 -0 -0 -0 -0 -0 -0 -0 -0 -0 -0 -0 -0 -0 -0 -0 -0 -0 -0 0 0 -0 -0 0 -1 -0 -0 -0 -0 -0 0 nan
nan 0 0 0 0 0 -0 -1 0 -0 -0 -0 -0 0 -0 0 0 -0 -0 -0 -0 -0 -0 -0 -0 -0 -0 0 0 -0 -0 -0 0 0 0 -0 -0 -1 -0 -0 -0 -0 -0 0 nan
nan 0 0 0 -0 -0 -0 -1 -0 -0 -0 -0 0 -0 0 0 -0 -0 -0 0 0 0 -0 -0 0 -0 0 -0 0 -0 -0 -0 -0 0 0 -0 -1 -0 -0 -0 -0 0 0 -0 nan
nan 0 -0 0 0 0 -1 0 -0 -0 -0 -0 0 -0 -0 -0 -0 -0 -0 0 0 0 0 -0 -0 -0 -0 -0 -0 -0 -0 -0 0 0 0 0 -0 0 -0 -0 -0 -0 -0 -0 nan
nan -0 0 0 -0 -1 -0 -0 0 0 0 -0 0 -0 0 0 -0 -0 -0 -0 0 0 -0 -0 -0 -0 -0 0 0 -0 -0 -0 -0 -0 0 0 0 -0 -1 -0 0 -0 -0 -0 nan
nan -0 0 0 -1 -1 0 0 0 0 0 0 0 -0 0 -0 -0 -0 0 -0 0 0 -0 0 -0 0 -0 -0 0 -0 -0 -0 0 0 0 0 -1 -0 -0 0 0 0 -0 0 nan
nan -0 0 -1 -1 0 0 0 -0 -0 -0 0 0 0 -0 -0 -0 -0 0 0 0 -0 0 -0 -0 0 -0 0 -0 0 0 -0 -0 -0 -0 -0 -1 0 0 0 0 -0 -0 -0 nan
nan -0 0 -1 -0 -0 0 0 0 0 -0 -0 -0 -0 0 0 -0 0 -0 0 -0 -0 0 -0 -0 -0 0 0 -0 0 0 0 -0 -0 -0 -0 -1 -0 0 0 -0 -1 -0 -0 nan
nan -0 -0 -0 -0 0 0 0 -0 0 -0 -0 -0 -0 -0 0 0 0 -0 0 0 0 -0 -0 0 0 -0 -0 -0 0 0 0 0 -1 -0 -0 -0 -0 0 -0 -1 -0 -0 -0 nan
nan -0 -0 -0 -0 -0 -0 0 0 0 -0 0 0 -0 0 -0 -0 0 -0 -0 0 0 0 0 0 0 0 0 0 0 -0 -0 -0 0 0 -0 -1 -1 -1 0 0 0 -0 0 nan
nan nan nan nan nan nan nan nan nan nan nan nan nan nan nan nan nan nan nan nan nan nan nan nan nan nan nan nan nan nan nan nan nan nan nan nan nan nan nan nan nan nan nan nan nan
Wind_Speed
22 22 22 22 21 20 20 15 11 9 7 7 9 12 16 16 16 20 21 17 7 10 11 9 15 18 19 12 3 2 4 4 5 6 4 7 5 5 6 10 6 3 11 10 27
21 19 20 21 19 18 16 15 12 10 8 2 4 10 14 14 17 23 20 19 13 18 14 14 18 17 9 7 4 3 3 3 1 3 3 8 9 9 6 8 7 12 11 23 24
19 19 19 20 20 17 14 13 12 14 16 14 13 6 13 17 19 17 25 15 14 14 15 20 15 15 8 9 3 3 2 1 4 4 11 7 8 5 15 2 9 18 21 23 20
16 18 17 20 20 19 17 19 15 8 16 16 13 16 18 19 5 20 27 15 15 16 23 18 11 8 6 5 4 5 5 2 7 5 7 3 10 7 2 4 10 15 15 19 20
15 15 15 17 19 17 15 15 16 17 13 14 12 10 8 9 5 15 25 15 19 22 23 15 10 7 7 6 7 5 0 6 6 13 12 7 8 6 7 7 12 16 16 16 16
13 13 13 17 19 18 13 11 13 17 18 18 18 15 9 8 7 14 19 19 24 20 22 16 15 8 9 5 5 7 9 5 10 10 9 4 3 3 8 11 15 15 14 15 16
15 14 15 17 16 15 13 13 13 15 14 18 21 17 22 12 13 15 18 24 17 18 23 22 8 2 12 7 12 13 6 5 11 7 4 3 3 3 11 16 14 15 15 16 16
16 15 14 14 13 12 14 13 13 15 15 14 15 18 17 18 17 18 16 11 11 14 13 16 11 7 5 18 6 4 5 4 4 7 3 4 6 3 13 18 17 18 19 19 19
10 9 9 10 10 10 13 16 10 10 15 16 11 14 7 14 16 12 10 16 17 15 11 14 16 9 8 6 5 6 3 3 2 6 4 2 5 2 14 16 16 17 18 19 17
4 5 7 9 8 7 8 12 27 7 6 8 10 6 9 9 17 15 17 19 15 13 9 11 7 5 4 5 6 5 5 3 3 2 3 2 7 7 8 14 19 19 17 19 21
6 5 5 6 8 13 8 9 9 14 28 19 18 9 11 15 15 9 11 15 10 10 4 7 8 4 2 1 4 6 5 5 1 2 0 3 6 11 20 19 23 28 27 23 22
7 6 4 7 12 17 19 20 13 4 5 22 21 18 22 12 15 11 9 9 12 5 4 7 5 3 5 4 6 5 7 3 1 2 1 4 11 11 10 13 22 26 26 25 22
9 6 7 10 7 11 19 19 13 7 4 14 15 17 12 21 11 14 9 11 8 7 6 7 1 6 3 7 10 6 7 2 1 4 3 7 8 5 3 2 8 9 14 14 16
5 7 8 4 5 11 11 15 11 5 5 12 11 11 12 5 8 17 8 4 4 5 3 7 7 4 6 7 4 5 3 2 4 4 2 5 4 5 5 7 8 15 3 2 1
2 4 8 10 11 10 11 11 7 1 5 12 8 8 13 6 1 10 13 9 4 2 5 2 5 7 9 3 3 4 2 3 3 5 4 6 4 7 4 4 5 11 7 2 2
5 4 9 13 15 15 12 7 3 6 1 7 6 7 5 11 5 4 8 11 6 8 7 3 3 4 2 3 4 3 4 7 5 3 3 3 4 6 1 1 5 3 3 1 1
16 12 4 4 3 5 5 2 5 6 3 5 3 5 4 7 6 6 5 6 2 5 5 6 4 4 4 3 4 4 5 3 4 4 5 2 3 9 4 5 3 6 4 3 2
8 16 11 5 3 2 2 5 9 4 3 2 1 2 5 6 5 6 3 4 6 5 4 4 5 4 6 2 3 2 4 5 5 3 4 4 5 5 2 5 7 5 3 3 1
6 8 13 7 4 5 1 6 5 4 2 1 1 4 4 4 2 5 4 3 3 5 4 4 2 2 3 2 2 0 2 3 6 2 3 2 7 6 3 3 7 6 1 4 8
8 4 16 8 8 3 5 4 1 2 4 3 2 1 2 1 3 3 3 2 4 5 2 1 3 2 3 3 3 2 3 3 3 2 3 5 5 5 3 4 4 2 2 1 2
9 3 18 11 5 6 4 3 2 1 2 3 1 2 1 2 2 2 1 2 1 2 3 2 4 3 3 2 5 1 1 2 3 4 4 1 6 6 6 1 3 5 6 5 4
5 4 16 10 5 5 3 3 2 2 1 1 1 2 2 3 1 2 3 2 1 2 3 1 4 3 4 2 3 3 4 4 4 4 2 3 6 4 4 4 5 5 8 10 10
4 4 12 12 4 3 1 3 3 3 2 1 1 2 1 2 1 1 1 1 2 2 3 2 1 2 6 4 3 3 4 4 3 2 5 5 6 1 8 4 8 7 9 10 4
4 3 6 9 6 4 2 1 2 1 1 2 2 0 2 1 2 2 1 1 1 2 2 2 2 5 6 4 4 4 5 6 6 3 3 6 5 4 6 6 7 13 9 7 6
5 2 3 2 5 3 1 1 1 2 1 2 2 2 1 2 3 5 4 2 1 2 1 2 3 2 5 7 4 6 8 8 9 11 8 5 10 14 7 7 23 19 7 8 7
3 1 1 1 1 2 3 1 1 0 3 1 1 3 2 3 2 3 3 3 5 2 6 2 2 1 4 5 5 6 11 14 15 13 11 12 20 12 22 18 8 6 6 4 6
5 3 1 1 1 2 3 3 3 1 1 2 3 1 3 4 3 6 6 5 2 6 6 5 5 3 5 2 6 8 9 13 5 6 12 14 13 9 4 7 7 4 7 8 11
Wind_Direction
25 23 24 28 42 45 54 62 77 101 129 141 160 149 155 159 166 175 172 160 139 164 162 187 172 155 158 163 172 196 73 164 166 173 178 146 117 81 96 115 91 122 157 167 168
27 25 28 29 35 51 62 63 59 60 64 77 164 178 173 155 161 172 175 165 175 172 181 186 171 152 144 151 173 91 101 188 144 277 192 140 112 117 110 105 71 106 130 154 171
31 32 36 38 33 45 61 54 58 79 83 58 64 165 163 160 154 173 162 168 167 177 171 172 161 142 118 141 116 80 126 340 352 304 171 130 109 113 134 112 170 160 148 163 176
41 35 44 44 44 45 44 69 62 78 76 84 96 127 136 160 173 177 171 177 174 170 161 171 168 152 110 127 109 96 15 49 354 49 105 70 119 87 133 160 166 182 171 174 184
47 36 46 56 62 60 51 65 68 65 62 66 90 137 143 108 124 162 171 178 171 164 170 179 178 131 123 117 93 85 327 51 34 64 75 103 74 122 131 137 159 168 183 190 192
56 48 46 58 66 71 67 61 55 63 75 67 63 74 72 86 125 153 164 167 164 169 176 185 177 119 104 86 82 122 93 42 42 47 57 86 63 129 169 150 161 175 187 198 205
61 57 67 64 58 69 60 51 47 57 52 56 64 62 55 59 124 138 143 149 160 175 174 184 173 244 122 92 116 119 77 33 18 12 37 41 343 225 186 179 183 196 204 209 219
62 66 66 74 77 76 53 36 29 44 32 40 60 66 67 80 106 122 138 143 158 182 196 202 196 180 107 118 88 75 59 91 316 5 24 66 267 290 192 186 202 212 218 225 229
49 53 55 81 77 75 68 50 50 76 63 46 45 53 39 91 90 117 138 141 137 146 145 171 162 98 105 89 47 21 126 97 348 29 344 95 266 294 191 206 227 233 233 235 241
42 52 70 84 61 41 40 66 58 70 38 43 32 62 70 45 75 92 107 110 120 135 132 130 86 76 46 75 182 164 114 79 133 332 9 292 265 278 217 230 243 251 250 248 248
73 101 102 71 45 50 53 87 63 48 57 68 64 65 59 79 95 107 104 89 88 94 54 28 73 102 73 327 139 126 113 114 230 267 31 248 271 268 267 261 261 260 258 257 257
75 108 114 93 81 54 47 58 48 50 25 41 54 57 51 73 88 75 88 70 74 47 322 41 66 300 304 29 112 99 108 51 287 290 102 336 285 262 253 253 256 263 264 261 259
91 108 130 130 71 38 34 34 29 18 54 21 21 25 20 61 40 37 79 77 77 60 43 94 5 321 116 37 79 36 101 117 122 345 33 339 304 332 343 323 341 289 276 273 263
103 140 163 183 336 358 9 9 9 20 73 336 354 17 5 30 41 38 52 83 61 117 64 71 341 56 64 69 14 85 338 77 53 70 198 27 274 308 343 331 17 18 8 131 215
294 248 250 249 307 323 329 345 347 12 60 312 326 347 18 65 126 17 36 72 75 53 87 275 12 27 51 359 336 139 78 74 73 84 57 354 67 271 340 28 360 359 29 163 159
8 317 273 271 283 293 310 328 335 43 323 332 329 347 18 30 25 36 51 71 84 61 46 77 42 56 64 15 37 138 73 40 51 64 33 297 116 288 256 62 307 337 11 124 242
39 23 5 286 282 285 302 332 41 87 306 312 325 0 36 6 21 38 33 26 62 85 21 11 356 346 27 58 19 71 62 7 2 11 216 324 38 245 269 271 270 293 278 232 240
339 13 18 29 42 58 37 50 67 235 215 244 301 355 69 9 13 9 63 28 18 53 99 124 339 5 344 47 175 80 135 149 198 193 251 339 238 254 242 321 358 299 273 219 272
346 17 29 43 66 2 62 53 173 229 284 268 8 69 19 28 65 54 44 33 30 28 106 128 350 311 42 3 52 134 54 147 104 46 51 245 288 321 307 357 11 49 152 272 262
4 20 21 11 349 357 75 121 165 308 343 3 41 132 118 334 70 72 31 330 357 37 34 130 78 341 337 8 19 64 156 58 0 140 262 290 277 234 289 286 304 3 355 261 200
16 63 12 354 350 34 98 154 150 14 28 16 23 18 96 144 106 112 156 344 25 349 43 82 97 305 25 207 193 54 336 69 125 142 173 274 266 217 218 245 336 332 343 313 301
28 50 2 5 49 48 56 6 134 163 116 34 58 24 33 347 64 123 177 204 165 142 134 170 135 171 215 262 213 201 205 156 126 231 222 148 273 235 205 161 38 15 339 314 284
36 13 18 26 72 28 23 33 26 346 313 123 117 76 16 349 45 92 247 195 148 76 168 179 107 41 346 347 351 228 210 177 112 75 209 150 259 20 147 74 54 11 340 338 325
7 24 36 56 75 113 107 90 34 0 312 337 318 318 130 136 12 234 143 216 29 38 127 125 167 185 191 196 142 206 218 191 160 151 204 228 276 293 220 265 310 338 316 311 311
37 47 10 333 9 85 79 127 103 344 303 329 322 259 299 241 187 189 163 173 204 186 97 101 243 202 261 244 238 225 226 207 202 217 206 212 228 245 261 275 312 304 290 325 317
42 73 48 238 275 85 16 103 159 261 168 292 226 358 201 289 288 287 162 216 203 171 166 153 235 122 283 287 248 263 249 237 234 233 245 256 272 266 265 280 261 321 328 46 34
43 17 31 316 354 89 210 175 156 145 187 198 211 255 282 231 231 281 279 280 252 171 194 169 158 122 256 331 311 285 244 222 189 202 218 229 248 256 251 210 299 18 33 16 354
Height
1492 1487 1481 1476 1471 1467 1464 1462 1462 1462 1462 1462 1463 1464 1466 1469 1473 1478 1481 1484 1486 1489 1492 1496 1499 1503 1507 1511 1512 1513 1522 1527 1521 1522 1515 1515 1517 1521 1523 1524 1525 1527 1528 1530 1535
1493 1489 1485 1481 1476 1472 1470 1467 1466 1466 1466 1466 1465 1467 1468 1471 1472 1476 1482 1482 1485 1488 1491 1495 1498 1503 1507 1510 1512 1513 1524 1518 1517 1516 1515 1515 1516 1519 1525 1527 1528 1529 1530 1531 1535
1495 1491 1487 1484 1480 1477 1475 1472 1470 1468 1468 1467 1466 1466 1470 1472 1475 1477 1480 1483 1486 1489 1491 1495 1499 1503 1505 1509 1511 1515 1520 1516 1516 1515 1515 1515 1517 1519 1523 1527 1528 1529 1531 1534 1535
1497 1493 1489 1486 1485 1483 1479 1477 1475 1473 1473 1472 1470 1470 1473 1475 1479 1476 1480 1485 1488 1489 1492 1496 1499 1501 1504 1509 1511 1518 1518 1516 1517 1514 1515 1517 1518 1520 1522 1524 1526 1530 1531 1532 1534
1499 1495 1492 1490 1487 1487 1485 1483 1480 1478 1477 1476 1476 1475 1475 1477 1477 1477 1481 1485 1487 1489 1492 1496 1499 1500 1505 1508 1512 1516 1518 1518 1518 1515 1517 1519 1520 1521 1523 1524 1526 1529 1532 1533 1534
1500 1497 1496 1493 1491 1490 1488 1487 1485 1484 1481 1480 1478 1477 1477 1477 1477 1477 1480 1484 1487 1489 1494 1497 1498 1501 1504 1509 1513 1517 1519 1521 1520 1520 1520 1522 1524 1522 1525 1525 1527 1529 1529 1531 1533
1503 1500 1498 1497 1495 1493 1492 1490 1488 1486 1483 1482 1479 1479 1479 1480 1479 1479 1481 1485 1488 1491 1495 1496 1499 1504 1504 1510 1517 1518 1523 1524 1525 1525 1525 1525 1526 1525 1524 1527 1526 1526 1529 1530 1532
1506 1503 1501 1499 1499 1496 1495 1492 1489 1487 1484 1483 1481 1480 1480 1481 1482 1485 1487 1489 1492 1495 1497 1499 1502 1505 1505 1512 1518 1522 1526 1534 1529 1527 1527 1527 1534 1523 1523 1525 1525 1527 1527 1528 1529
1508 1506 1504 1502 1501 1499 1496 1495 1492 1489 1487 1486 1485 1483 1482 1487 1487 1487 1489 1491 1492 1497 1498 1501 1503 1504 1508 1516 1528 1528 1537 1532 1531 1528 1529 1530 1530 1523 1523 1524 1524 1524 1525 1526 1528
1509 1508 1506 1504 1503 1501 1499 1498 1494 1492 1490 1489 1490 1491 1489 1485 1490 1490 1491 1492 1495 1497 1499 1500 1501 1509 1515 1522 1540 1531 1533 1531 1532 1532 1530 1531 1531 1524 1524 1523 1521 1521 1522 1522 1523
1509 1509 1509 1507 1505 1504 1500 1500 1499 1498 1492 1496 1497 1495 1494 1493 1495 1496 1495 1495 1497 1498 1505 1505 1515 1531 1519 1517 1517 1521 1527 1534 1534 1532 1532 1532 1532 1525 1520 1521 1518 1515 1517 1518 1519
1509 1510 1510 1509 1507 1505 1504 1501 1504 1506 1501 1500 1499 1498 1498 1496 1496 1496 1498 1499 1500 1510 1508 1514 1527 1523 1522 1518 1519 1524 1531 1536 1533 1531 1532 1532 1529 1518 1515 1514 1512 1512 1512 1514 1516
1512 1512 1512 1511 1509 1507 1505 1505 1505 1505 1504 1504 1504 1503 1503 1503 1502 1502 1502 1504 1509 1515 1516 1522 1525 1522 1522 1525 1522 1536 1535 1535 1534 1533 1532 1535 1529 1518 1512 1511 1510 1508 1508 1510 1512
1514 1513 1513 1512 1511 1508 1507 1507 1506 1505 1518 1518 1509 1509 1508 1506 1508 1508 1506 1509 1513 1520 1519 1527 1526 1525 1526 1529 1531 1536 1536 1534 1537 1543 1553 1543 1560 1524 1519 1514 1510 1508 1508 1509 1511
1516 1515 1513 1512 1511 1510 1510 1508 1506 1506 1544 1522 1516 1513 1511 1509 1513 1512 1511 1509 1516 1519 1521 1534 1531 1531 1532 1535 1532 1536 1535 1537 1538 1547 1553 1550 1569 1529 1521 1516 1515 1510 1509 1510 1511
1518 1514 1512 1512 1510 1509 1508 1508 1508 1523 1550 1531 1521 1518 1514 1513 1514 1514 1513 1514 1519 1522 1525 1532 1532 1533 1535 1534 1534 1535 1538 1543 1548 1556 1578 1552 1564 1543 1531 1518 1515 1512 1512 1512 1512
1516 1515 1511 1510 1510 1509 1508 1509 1524 1546 1534 1532 1527 1522 1521 1522 1519 1519 1522 1524 1528 1537 1538 1538 1539 1537 1536 1537 1537 1538 1546 1577 1570 1580 1571 1555 1568 1536 1519 1517 1515 1513 1512 1512 1512
1516 1516 1513 1510 1509 1509 1509 1512 1540 1537 1532 1527 1525 1523 1526 1526 1524 1524 1526 1532 1528 1529 1544 1553 1562 1542 1540 1541 1542 1541 1545 1571 1565 1573 1572 1560 1560 1532 1518 1515 1512 1510 1510 1511 1511
1516 1516 1515 1512 1511 1511 1512 1536 1540 1536 1529 1526 1525 1526 1528 1526 1527 1528 1532 1535 1533 1532 1537 1543 1545 1542 1541 1541 1542 1541 1553 1549 1571 1578 1580 1566 1541 1522 1516 1514 1512 1510 1510 1510 1511
1517 1516 1515 1515 1514 1512 1515 1535 1534 1531 1530 1529 1529 1526 1530 1528 1528 1529 1533 1535 1533 1532 1532 1535 1547 1543 1542 1542 1543 1542 1546 1559 1569 1567 1566 1563 1550 1541 1526 1514 1511 1511 1510 1510 1510
1516 1517 1517 1515 1515 1515 1530 1534 1532 1531 1531 1532 1531 1530 1529 1528 1529 1531 1534 1533 1531 1532 1532 1535 1546 1552 1547 1547 1546 1548 1550 1550 1554 1561 1567 1568 1552 1524 1518 1514 1513 1512 1512 1512 1511
1518 1519 1519 1515 1516 1524 1533 1532 1530 1530 1530 1530 1531 1531 1531 1530 1529 1531 1534 1533 1532 1532 1534 1536 1545 1559 1545 1543 1543 1543 1544 1547 1562 1554 1562 1565 1551 1511 1513 1513 1511 1512 1512 1511 1509
1521 1521 1520 1517 1532 1535 1532 1533 1533 1534 1532 1529 1530 1531 1531 1532 1534 1532 1534 1533 1532 1533 1534 1534 1543 1562 1548 1546 1542 1541 1540 1541 1546 1553 1551 1560 1543 1511 1512 1511 1510 1511 1510 1509 1507
1524 1526 1523 1523 1527 1530 1531 1533 1533 1533 1533 1533 1532 1530 1529 1531 1533 1535 1536 1535 1534 1534 1534 1534 1540 1539 1545 1533 1536 1540 1536 1537 1540 1561 1545 1539 1523 1511 1512 1510 1510 1510 1509 1508 1507
1527 1531 1531 1534 1530 1529 1531 1532 1532 1533 1534 1533 1533 1534 1534 1534 1531 1530 1532 1534 1534 1534 1535 1537 1542 1544 1540 1536 1534 1532 1531 1532 1539 1528 1531 1521 1522 1510 1510 1510 1507 1507 1507 1506 1504
1530 1530 1530 1531 1530 1530 1531 1531 1531 1531 1533 1534 1535 1532 1533 1536 1535 1534 1532 1533 1530 1533 1533 1535 1540 1538 1538 1533 1535 1534 1529 1525 1522 1520 1521 1520 1512 1507 1507 1507 1507 1507 1504 1503 1502
1531 1532 1531 1532 1531 1532 1530 1528 1528 1529 1531 1531 1531 1532 1531 1530 1529 1530 1530 1530 1530 1531 1534 1535 1537 1543 1538 1533 1532 1525 1510 1510 1513 1511 1509 1515 1499 1502 1504 1504 1504 1504 1502 1501 1500